Weather History for KSNC - August, 2013

Change the Weather History Date:

Thursday, August 29, 2013

  Actual Average (KHVN) Record (KHVN)
Temperature  
Mean Temperature 68 °F -  
Max Temperature 73 °F 76 °F 91 °F (1977)
Min Temperature 62 °F 61 °F 45 °F (1982)
Cooling Degree Days 4    
Growing Degree Days 18 (Base 50)    
Moisture  
Dew Point 65 °F    
Average Humidity 90    
Maximum Humidity 100    
Minimum Humidity 73    
Precipitation  
Precipitation 0.00 in - - ()
Sea Level Pressure  
Sea Level Pressure 30.02 in    
Wind  
Wind Speed 3 mph (ENE)    
Max Wind Speed 8 mph    
Max Gust Speed -    
Visibility 7 miles    
Events Fog , Rain    
Averages and records for this station are not official NWS values.
T = Trace of Precipitation, MM = Missing Value Source: NWS Daily Summary

Daily Weather History Graph

Daily Weather History Graph

Search for Another Location

Airport or City:

Trip Planner

Search our weather history database for the weather conditions in past years. The results will help you decide how hot, cold, wet, or windy it might be!

Date:

Astronomy

Aug. 29, 2013 Rise Set
Actual Time 6:13 AM EDT 7:27 PM EDT
Civil Twilight 5:44 AM EDT 7:56 PM EDT
Nautical Twilight 5:10 AM EDT 8:30 PM EDT
Astronomical Twilight 4:34 AM EDT 9:06 PM EDT
Moon 12:00 AM EDT (8/29) 2:55 PM EDT (8/29)
Length of Visible Light 14h 11m
Length of Day
13h 13m
Last Quarter, 38% of the Moon is Illuminated
Aug 29
Last Quarter
Sep 5
New
Sep 12
First Quarter
Sep 19
Full
Sep 26
Last Quarter

Hourly Weather History & Observations

Time (EDT) Temp. Dew Point Humidity Pressure Visibility Wind Dir Wind Speed Gust Speed Precip Events Conditions
12:15 AM 69.8 °F 69.8 °F 100% 29.94 in 2.0 mi Calm Calm - N/A   Overcast
12:35 AM 69.8 °F 69.8 °F 100% 29.95 in 0.2 mi Calm Calm - N/A Fog Fog
12:55 AM 69.8 °F 69.8 °F 100% 29.94 in 0.2 mi Calm Calm - N/A Fog Fog
1:15 AM 69.8 °F 69.8 °F 100% 29.95 in 0.2 mi Calm Calm - N/A Fog Fog
1:35 AM 69.8 °F 69.8 °F 100% 29.94 in 0.2 mi Calm Calm - N/A Fog Fog
1:55 AM 68.0 °F 68.0 °F 100% 29.94 in 1.5 mi Calm Calm - N/A   Overcast
2:15 AM 68.0 °F 68.0 °F 100% 29.94 in 0.5 mi Calm Calm - N/A Fog Fog
2:35 AM 68.0 °F 68.0 °F 100% 29.95 in 1.8 mi Calm Calm - N/A   Overcast
2:55 AM 68.0 °F 68.0 °F 100% 29.95 in 2.5 mi Calm Calm - N/A   Overcast
3:15 AM 68.0 °F 68.0 °F 100% 29.95 in 2.0 mi Calm Calm - N/A   Overcast
3:35 AM 68.0 °F 68.0 °F 100% 29.96 in 3.0 mi East 3.5 mph - N/A   Overcast
3:55 AM 68.0 °F 68.0 °F 100% 29.96 in 2.5 mi East 3.5 mph - N/A   Overcast
4:15 AM 68.0 °F 68.0 °F 100% 29.96 in 3.0 mi ESE 3.5 mph - N/A   Overcast
4:35 AM 68.0 °F 68.0 °F 100% 29.96 in 2.5 mi SE 4.6 mph - N/A   Overcast
4:55 AM 68.0 °F 68.0 °F 100% 29.96 in 1.5 mi SSE 3.5 mph - N/A   Overcast
5:15 AM 66.2 °F 66.2 °F 100% 29.96 in 3.0 mi SE 3.5 mph - N/A   Overcast
5:35 AM 68.0 °F 68.0 °F 100% 29.97 in 3.0 mi East 3.5 mph - N/A   Overcast
5:55 AM 68.0 °F 68.0 °F 100% 29.97 in 3.0 mi East 4.6 mph - N/A   Overcast
6:15 AM 66.2 °F 66.2 °F 100% 29.98 in 3.0 mi ENE 3.5 mph - N/A   Overcast
6:35 AM 66.2 °F 66.2 °F 100% 30.00 in 3.0 mi ENE 4.6 mph - N/A   Overcast
6:55 AM 66.2 °F 66.2 °F 100% 30.01 in 3.0 mi NE 8.1 mph - N/A   Overcast
7:15 AM 66.2 °F 66.2 °F 100% 30.01 in 4.0 mi NE 4.6 mph - N/A   Overcast
7:35 AM 66.2 °F 66.2 °F 100% 30.02 in 5.0 mi NE 4.6 mph - N/A   Overcast
7:55 AM 66.2 °F 64.4 °F 94% 30.02 in 8.0 mi NE 5.8 mph - N/A   Overcast
8:15 AM 66.2 °F 64.4 °F 94% 30.03 in 9.0 mi NE 6.9 mph - N/A Rain Light Rain
8:35 AM 66.2 °F 64.4 °F 94% 30.03 in 10.0 mi NE 6.9 mph - N/A   Overcast
8:55 AM 66.2 °F 64.4 °F 94% 30.04 in 8.0 mi ENE 4.6 mph - N/A   Overcast
9:15 AM 66.2 °F 64.4 °F 94% 30.04 in 10.0 mi ENE 6.9 mph - N/A   Overcast
9:35 AM 66.2 °F 64.4 °F 94% 30.04 in 10.0 mi NE 4.6 mph - N/A   Overcast
9:55 AM 66.2 °F 64.4 °F 94% 30.05 in 10.0 mi ENE 5.8 mph - N/A   Overcast
10:15 AM 66.2 °F 64.4 °F 94% 30.05 in 7.0 mi ENE 5.8 mph - N/A   Overcast
10:35 AM 66.2 °F 66.2 °F 100% 30.05 in 4.0 mi NE 4.6 mph - N/A   Overcast
10:55 AM 68.0 °F 64.4 °F 88% 30.05 in 10.0 mi ENE 5.8 mph - N/A   Overcast
11:15 AM 69.8 °F 64.4 °F 83% 30.05 in 10.0 mi NE 6.9 mph - N/A   Overcast
11:35 AM 69.8 °F 64.4 °F 83% 30.05 in 10.0 mi NE 5.8 mph - N/A   Overcast
11:55 AM 71.6 °F 64.4 °F 78% 30.05 in 10.0 mi NNE 6.9 mph - N/A Rain Light Rain
12:15 PM 71.6 °F 64.4 °F 78% 30.04 in 10.0 mi NE 4.6 mph - N/A   Overcast
12:35 PM 71.6 °F 64.4 °F 78% 30.04 in 10.0 mi NE 5.8 mph - N/A   Overcast
12:55 PM 71.6 °F 64.4 °F 78% 30.04 in 10.0 mi NE 4.6 mph - N/A   Overcast
1:15 PM 71.6 °F 64.4 °F 78% 30.04 in 10.0 mi NE 6.9 mph - N/A   Overcast
1:35 PM 71.6 °F 64.4 °F 78% 30.04 in 10.0 mi ENE 5.8 mph - N/A   Overcast
1:55 PM 71.6 °F 64.4 °F 78% 30.04 in 10.0 mi North 6.9 mph - N/A   Overcast
2:15 PM 73.4 °F 64.4 °F 73% 30.03 in 10.0 mi NE 6.9 mph - N/A   Overcast
2:35 PM 73.4 °F 64.4 °F 73% 30.03 in 10.0 mi NE 6.9 mph - N/A   Overcast
2:55 PM 71.6 °F 64.4 °F 78% 30.03 in 10.0 mi NE 6.9 mph - N/A   Overcast
3:15 PM 71.6 °F 64.4 °F 78% 30.03 in 10.0 mi NE 4.6 mph - N/A   Overcast
3:35 PM 73.4 °F 64.4 °F 73% 30.03 in 10.0 mi NE 5.8 mph - N/A   Mostly Cloudy
3:55 PM 73.4 °F 64.4 °F 73% 30.03 in 10.0 mi ENE 5.8 mph - N/A   Mostly Cloudy
4:15 PM 73.4 °F 64.4 °F 73% 30.03 in 10.0 mi ENE 6.9 mph - N/A   Overcast
4:35 PM 73.4 °F 64.4 °F 73% 30.03 in 10.0 mi ENE 6.9 mph - N/A   Mostly Cloudy
4:55 PM 71.6 °F 64.4 °F 78% 30.03 in 10.0 mi ENE 8.1 mph - N/A   Mostly Cloudy
5:15 PM 71.6 °F 64.4 °F 78% 30.04 in 10.0 mi ENE 8.1 mph - N/A   Mostly Cloudy
5:35 PM 71.6 °F 64.4 °F 78% 30.04 in 10.0 mi ENE 6.9 mph - N/A   Overcast
5:55 PM 69.8 °F 64.4 °F 83% 30.04 in 10.0 mi NE 8.1 mph - N/A   Overcast
6:15 PM 69.8 °F 62.6 °F 78% 30.04 in 10.0 mi ENE 6.9 mph - N/A   Overcast
6:35 PM 68.0 °F 62.6 °F 83% 30.04 in 10.0 mi ENE 5.8 mph - N/A   Scattered Clouds
6:55 PM 68.0 °F 62.6 °F 83% 30.05 in 10.0 mi ENE 4.6 mph - N/A   Clear
7:15 PM 66.2 °F 62.6 °F 88% 30.05 in 10.0 mi ENE 6.9 mph - N/A   Scattered Clouds
7:35 PM 66.2 °F 62.6 °F 88% 30.06 in 10.0 mi ENE 3.5 mph - N/A   Mostly Cloudy
7:55 PM 66.2 °F 62.6 °F 88% 30.05 in 10.0 mi ENE 5.8 mph - N/A   Overcast
8:15 PM 66.2 °F 62.6 °F 88% 30.06 in 10.0 mi ENE 5.8 mph - N/A   Overcast
8:35 PM 66.2 °F 62.6 °F 88% 30.06 in 10.0 mi ENE 8.1 mph - N/A   Overcast
8:55 PM 64.4 °F 62.6 °F 94% 30.06 in 10.0 mi ENE 3.5 mph - N/A   Overcast
9:15 PM 64.4 °F 62.6 °F 94% 30.06 in 10.0 mi ENE 4.6 mph - N/A   Overcast
9:35 PM 64.4 °F 62.6 °F 94% 30.06 in 10.0 mi ENE 6.9 mph - N/A   Overcast
9:55 PM 64.4 °F 62.6 °F 94% 30.07 in 10.0 mi NE 4.6 mph - N/A   Overcast
10:15 PM 64.4 °F 62.6 °F 94% 30.06 in 10.0 mi NE 5.8 mph - N/A   Overcast
10:35 PM 64.4 °F 62.6 °F 94% 30.07 in 10.0 mi ENE 5.8 mph - N/A   Overcast
10:55 PM 64.4 °F 62.6 °F 94% 30.06 in 10.0 mi ENE 4.6 mph - N/A   Overcast
11:15 PM 64.4 °F 62.6 °F 94% 30.06 in 10.0 mi ENE 3.5 mph - N/A   Overcast
11:35 PM 64.4 °F 62.6 °F 94% 30.05 in 10.0 mi East 3.5 mph - N/A   Scattered Clouds
11:55 PM 62.6 °F 62.6 °F 100% 30.04 in 10.0 mi Calm Calm - N/A   Clear